Location: Goll?ig?dem
(16.6773°N, 80.7332°E)
Time: 02:24:16
(UTC+00:00)

Cosmos 1484 Rocket - Pass Details

Date: 21 April 2021
Orbit: 506 x 557 km, 97.4° (Epoch: 07 May)

Event Time Altitude Azimuth Distance (km) Brightness Sun altitude
Rises 22:53:04 0° 8° (N) 2,732 6.8 -20.2°
Reaches altitude 10° 22:55:12 10° 7° (N) 1,836 5.8 -19.7°
Maximum altitude 22:59:10 75° 282° (WNW) 577 2.7 -18.8°
Enters shadow 23:01:05 29° 202° (SSW) 1,019 3.8 -18.4°
